Temp
62 62 62 62 62 62 62 62 61 61 61 62 62 62 61 61 61 61 61 61 62 62 62 63 63 63 60 57 56 69 72 71 70 68 65 62 58 55 51 53 56 50 54 59 60 58 56
62 62 61 61 61 61 61 61 61 60 61 61 61 61 61 60 61 61 61 61 62 62 62 63 63 62 58 51 67 71 69 68 68 65 63 61 57 58 53 54 51 53 55 55 58 58 57
62 61 61 61 61 61 61 61 60 60 60 61 61 60 60 60 60 60 60 61 61 61 62 63 63 63 58 54 67 68 69 65 66 65 60 62 61 56 55 52 57 55 49 52 54 55 55
61 61 60 60 60 60 60 60 60 60 60 60 60 60 59 59 60 60 60 60 61 61 62 63 64 58 50 65 63 68 69 65 67 67 64 62 62 56 54 56 54 48 46 41 53 54 53
61 60 60 60 60 60 60 60 59 59 60 60 59 59 59 59 59 59 59 61 61 62 63 63 58 55 50 67 63 66 66 63 64 64 63 69 59 53 53 45 41 42 37 41 48 55 52
60 59 59 59 59 60 60 59 59 59 59 59 59 58 58 59 59 59 59 60 61 60 62 65 65 53 58 56 62 64 65 64 59 59 57 55 51 45 44 41 34 36 38 43 42 50 49
59 59 59 59 59 59 59 59 59 59 59 59 58 58 58 58 59 59 56 55 54 53 57 51 53 56 59 62 64 61 64 61 59 53 45 50 42 38 44 46 47 44 41 39 45 53 47
59 58 58 58 58 58 58 58 58 58 58 58 58 57 58 58 59 59 55 51 48 50 48 57 58 58 61 60 55 59 64 53 51 45 48 44 39 48 52 49 46 43 39 39 45 52 47
58 58 58 58 58 58 57 57 58 58 58 57 57 57 57 58 58 56 51 50 56 54 46 53 57 56 56 59 53 53 58 54 48 45 45 41 46 53 51 46 44 41 39 40 41 45 45
58 58 57 57 57 57 57 57 57 57 57 57 57 57 57 58 55 53 49 55 56 54 38 46 51 54 58 56 49 59 59 52 49 44 45 42 49 48 44 44 45 37 45 44 43 37 29
58 57 57 57 57 57 57 57 57 57 57 56 56 57 57 57 50 49 52 55 54 49 24 49 50 60 56 51 51 51 58 53 44 45 44 42 43 42 42 44 46 42 45 43 41 35 28
58 57 56 56 56 56 56 56 56 57 56 56 56 56 56 55 51 51 54 53 49 36 23 43 50 48 48 50 51 52 52 54 52 44 44 43 49 47 45 47 46 48 43 40 37 32 21
58 57 56 55 55 56 56 56 56 56 56 56 55 55 54 57 48 53 52 47 35 26 45 41 42 47 45 44 46 47 42 37 34 29 30 39 42 45 48 41 45 42 34 23 21 21 22
57 56 55 55 55 55 55 55 56 56 56 55 55 54 55 56 52 52 47 43 30 41 39 46 45 44 40 42 42 44 38 32 36 34 28 26 28 41 46 40 35 35 34 24 21 19 22
57 56 55 54 55 55 55 55 55 56 55 55 54 48 49 50 54 49 44 30 31 36 43 42 43 36 37 41 39 39 32 32 33 33 28 26 30 41 44 43 42 35 29 36 27 25 18
57 56 55 54 54 54 54 55 55 55 55 55 44 47 47 53 52 45 40 38 37 43 43 43 33 38 32 36 35 35 32 34 34 37 34 31 24 37 41 43 42 37 38 25 25 15 18
57 56 54 54 54 53 54 54 55 55 55 54 43 43 49 53 48 42 33 33 39 45 44 40 36 35 35 34 34 33 31 32 36 35 34 31 28 30 36 33 29 30 27 27 25 22 16
56 55 54 54 53 53 53 54 54 54 54 49 42 39 49 49 40 35 34 38 44 41 43 41 39 37 34 35 32 32 30 31 37 37 30 31 27 20 26 34 35 31 26 24 14 14 16
56 55 54 53 53 53 53 53 53 53 53 42 40 40 48 47 34 31 35 37 37 39 36 38 36 37 38 34 29 32 30 36 38 35 29 31 24 15 21 27 30 25 27 27 23 20 13
55 54 54 53 53 53 53 53 53 53 53 42 41 36 41 39 36 34 33 33 32 38 36 38 36 38 35 31 34 29 28 34 35 35 39 35 23 20 13 19 24 22 25 26 22 7 13
54 54 53 53 53 53 53 52 52 52 52 43 39 37 37 33 35 33 35 35 31 31 37 38 34 36 32 28 29 29 31 30 33 37 32 29 19 20 23 25 25 25 24 25 22 20 11
53 52 52 51 51 52 52 52 51 51 52 42 39 37 35 33 37 35 34 31 32 32 33 32 31 34 34 30 29 26 29 27 26 29 28 29 19 21 18 25 24 22 24 24 25 22 20
51 51 51 50 51 52 52 52 51 50 49 38 38 40 39 35 35 33 32 33 32 33 34 36 34 32 30 30 32 31 30 30 28 26 24 24 20 18 12 21 21 15 11 17 20 18 14
51 51 50 50 51 51 52 51 51 50 49 39 35 37 38 31 33 33 33 33 31 32 29 35 36 30 31 37 35 31 27 29 28 27 29 21 19 20 11 16 1 13 20 16 11 11 11
51 50 50 50 51 51 51 51 50 50 50 37 35 36 34 27 31 31 31 30 31 31 30 31 33 33 34 30 24 22 20 22 24 27 26 26 19 13 7 7 12 13 15 10 7 7 9
50 50 50 51 51 51 51 51 51 50 49 37 35 37 35 29 27 32 29 31 24 21 24 29 34 35 32 27 24 17 15 19 16 20 26 26 20 12 10 7 5 8 20 24 8 0 14
50 50 50 51 51 51 51 50 50 50 50 40 37 40 36 26 29 32 27 27 29 25 23 26 28 28 30 23 21 18 16 21 13 14 16 14 15 12 10 10 9 16 21 25 1 1 16
50 50 50 51 51 51 51 50 50 50 49 41 38 40 35 27 29 33 33 27 28 26 21 25 24 24 22 19 19 15 13 16 15 17 14 15 11 4 5 0 0 19 19 10 9 15 17
50 50 50 50 50 50 50 50 50 50 51 44 36 43 42 32 29 37 36 36 35 33 29 25 24 23 23 16 17 16 17 16 12 5 17 9 11 12 13 9 16 17 16 18 17 15 16
MSLP
1022.48 1022.37 1022.30 1022.15 1022.01 1021.81 1021.56 1021.37 1021.19 1020.95 1020.53 1020.10 1019.74 1019.49 1019.23 1019.01 1018.73 1018.37 1018.06 1017.68 1017.41 1017.11 1016.89 1016.69 1016.53 1016.38 1016.24 1016.22 1016.51 1015.95 1015.75 1015.52 1015.22 1015.09 1015.10 1015.09 1015.10 1015.11 1015.21 1015.05 1014.87 1014.97 1014.87 1014.56 1014.26 1014.19 1014.28
1022.60 1022.51 1022.38 1022.20 1022.07 1021.90 1021.69 1021.50 1021.28 1020.95 1020.60 1020.19 1019.89 1019.65 1019.35 1019.02 1018.66 1018.39 1018.00 1017.58 1017.26 1017.01 1016.85 1016.65 1016.48 1016.39 1016.26 1016.35 1016.12 1015.85 1015.74 1015.60 1015.49 1015.37 1015.30 1015.44 1015.66 1015.53 1015.47 1015.26 1015.21 1015.14 1015.05 1014.71 1014.36 1014.26 1014.37
1022.74 1022.68 1022.58 1022.42 1022.26 1022.09 1021.86 1021.58 1021.29 1021.00 1020.67 1020.32 1020.04 1019.77 1019.41 1019.04 1018.68 1018.32 1017.92 1017.50 1017.15 1016.89 1016.70 1016.60 1016.48 1016.40 1016.17 1016.57 1016.14 1015.89 1015.73 1015.74 1015.62 1015.65 1015.72 1015.76 1015.83 1015.85 1015.79 1015.67 1015.51 1015.30 1015.41 1014.93 1014.26 1014.14 1014.48
1022.82 1022.79 1022.66 1022.52 1022.40 1022.24 1022.00 1021.73 1021.44 1021.10 1020.74 1020.41 1020.16 1019.84 1019.44 1019.01 1018.63 1018.28 1017.90 1017.42 1017.04 1016.79 1016.60 1016.55 1016.45 1016.26 1016.59 1016.25 1016.22 1016.08 1015.80 1015.72 1015.67 1015.68 1015.81 1015.92 1015.94 1016.07 1015.98 1015.97 1015.79 1015.84 1015.84 1015.45 1014.14 1014.39 1014.80
1022.68 1022.70 1022.72 1022.61 1022.53 1022.38 1022.13 1021.87 1021.56 1021.16 1020.80 1020.45 1020.10 1019.81 1019.45 1018.95 1018.51 1018.10 1017.72 1017.37 1016.97 1016.72 1016.60 1016.48 1016.47 1016.20 1016.68 1016.30 1016.26 1016.16 1015.99 1016.04 1015.86 1015.86 1015.85 1015.88 1016.03 1016.30 1016.34 1016.51 1016.63 1016.33 1016.24 1015.77 1014.97 1014.53 1014.87
1022.66 1022.62 1022.50 1022.46 1022.50 1022.40 1022.26 1021.99 1021.65 1021.26 1020.87 1020.52 1020.13 1019.71 1019.36 1018.91 1018.38 1017.90 1017.45 1017.22 1016.90 1016.73 1016.56 1016.45 1016.27 1016.56 1016.72 1016.62 1016.43 1016.31 1016.09 1016.07 1016.17 1016.07 1016.16 1016.25 1016.50 1016.76 1017.00 1017.21 1017.23 1016.82 1016.54 1016.01 1015.66 1015.08 1015.36
1022.81 1022.73 1022.60 1022.43 1022.24 1022.17 1022.16 1022.06 1021.80 1021.41 1020.97 1020.54 1020.13 1019.72 1019.20 1018.69 1018.20 1017.80 1017.50 1017.07 1017.42 1017.51 1016.97 1017.12 1016.99 1016.69 1016.74 1016.69 1016.51 1016.40 1016.29 1016.29 1016.27 1016.43 1016.59 1016.55 1017.18 1017.16 1016.99 1016.98 1016.68 1016.61 1016.65 1016.62 1015.83 1015.22 1015.41
1022.88 1022.82 1022.62 1022.58 1022.34 1022.13 1021.94 1021.81 1021.67 1021.41 1021.06 1020.67 1020.20 1019.69 1019.14 1018.67 1018.19 1017.48 1017.65 1018.47 1019.32 1019.67 1018.51 1017.47 1017.18 1017.06 1016.88 1016.87 1016.88 1016.71 1016.53 1016.78 1016.75 1016.85 1016.78 1017.19 1017.13 1016.64 1016.54 1016.59 1016.52 1016.59 1016.83 1016.73 1016.09 1015.46 1015.77
1023.01 1022.98 1022.84 1022.59 1022.44 1022.24 1022.00 1021.75 1021.50 1021.18 1020.91 1020.61 1020.23 1019.74 1019.16 1018.60 1018.16 1018.03 1018.64 1019.27 1019.19 1019.16 1018.82 1017.86 1017.29 1017.08 1017.00 1016.97 1016.97 1016.99 1016.92 1017.05 1017.07 1017.15 1017.31 1017.41 1017.05 1016.62 1016.69 1016.77 1016.92 1016.93 1017.18 1017.16 1017.13 1016.76 1016.45
1022.91 1023.04 1023.01 1022.91 1022.63 1022.32 1022.03 1021.80 1021.52 1021.17 1020.79 1020.48 1020.12 1019.69 1019.20 1018.55 1018.42 1018.61 1019.04 1019.12 1019.09 1019.12 1018.92 1018.17 1017.48 1017.17 1017.10 1017.15 1017.46 1017.34 1017.30 1017.47 1017.38 1017.56 1017.54 1017.40 1016.93 1016.88 1016.98 1017.06 1017.18 1017.37 1017.42 1017.58 1017.75 1018.10 1018.41
1022.73 1022.92 1022.99 1022.89 1022.76 1022.50 1022.19 1021.78 1021.48 1021.20 1020.90 1020.50 1020.06 1019.63 1019.23 1019.04 1019.22 1019.27 1019.83 1019.35 1019.04 1019.25 1019.24 1018.13 1017.34 1017.03 1017.10 1017.45 1017.75 1017.64 1017.46 1017.50 1017.92 1018.27 1018.43 1017.68 1017.36 1017.30 1017.39 1017.37 1017.52 1017.56 1017.76 1018.03 1018.38 1019.12 1019.61
1022.42 1022.69 1022.83 1022.89 1022.80 1022.60 1022.26 1021.80 1021.49 1021.20 1020.91 1020.54 1020.15 1019.64 1019.20 1019.05 1019.45 1019.70 1019.50 1019.55 1019.66 1019.42 1018.84 1018.10 1017.48 1017.27 1017.41 1017.36 1017.73 1017.85 1017.95 1018.10 1018.42 1018.99 1018.97 1018.66 1017.86 1017.62 1017.59 1017.55 1017.69 1017.79 1018.20 1018.57 1018.88 1019.89 1020.50
1022.27 1022.45 1022.56 1022.63 1022.65 1022.55 1022.30 1021.90 1021.38 1021.05 1020.82 1020.53 1020.13 1019.77 1019.40 1019.26 1019.74 1019.58 1019.53 1019.86 1020.41 1019.59 1019.10 1018.76 1018.18 1017.91 1018.00 1017.94 1018.24 1018.61 1019.75 1020.39 1020.79 1020.67 1020.74 1019.74 1018.65 1018.27 1018.04 1018.29 1018.16 1018.67 1019.70 1020.48 1020.74 1021.31 1021.01
1022.09 1022.31 1022.40 1022.46 1022.33 1022.29 1022.13 1021.79 1021.43 1021.04 1020.76 1020.50 1020.06 1019.76 1019.31 1019.21 1019.30 1019.41 1019.63 1019.99 1020.41 1019.88 1019.39 1019.07 1018.76 1018.68 1018.79 1018.69 1018.90 1019.45 1020.81 1021.97 1022.51 1022.52 1022.36 1021.72 1020.08 1019.37 1019.09 1019.24 1019.61 1019.95 1020.63 1021.88 1022.36 1022.54 1022.12
1021.88 1022.13 1022.41 1022.46 1022.37 1022.04 1022.02 1021.67 1021.16 1021.00 1020.67 1020.38 1020.06 1019.75 1019.76 1019.67 1019.32 1019.48 1019.85 1020.67 1020.46 1020.35 1019.96 1019.64 1019.30 1019.25 1019.30 1019.39 1019.74 1020.26 1021.79 1023.07 1023.76 1023.76 1023.74 1023.15 1021.78 1020.61 1020.04 1019.98 1020.25 1020.65 1021.31 1022.33 1023.07 1023.27 1024.12
1021.54 1021.99 1022.23 1022.25 1022.19 1021.99 1021.82 1021.51 1021.25 1020.68 1020.57 1020.44 1020.61 1020.22 1019.86 1019.39 1019.47 1019.84 1020.34 1020.60 1020.71 1020.57 1020.45 1020.10 1020.11 1019.84 1020.05 1020.22 1020.47 1021.10 1022.61 1023.88 1024.30 1024.41 1024.36 1024.31 1023.68 1021.88 1021.13 1020.65 1020.92 1021.18 1022.26 1023.36 1024.40 1025.13 1024.87
1021.03 1021.58 1021.84 1022.21 1022.13 1021.89 1021.66 1021.27 1020.96 1020.63 1020.45 1020.42 1020.75 1020.64 1019.70 1019.36 1019.71 1020.27 1021.14 1021.29 1021.34 1021.06 1020.91 1020.70 1020.64 1020.51 1020.44 1020.77 1021.18 1021.76 1023.14 1024.54 1024.69 1024.90 1024.90 1024.91 1024.90 1023.73 1022.70 1022.28 1022.65 1023.14 1023.79 1024.88 1025.84 1026.55 1026.95
1020.50 1021.05 1021.51 1021.72 1022.03 1021.84 1021.48 1021.29 1020.72 1020.49 1020.28 1020.34 1020.80 1021.00 1019.78 1019.54 1020.48 1020.76 1021.59 1021.60 1021.50 1021.64 1021.66 1021.45 1021.31 1021.36 1021.41 1021.71 1022.01 1022.59 1023.63 1024.58 1025.25 1025.42 1025.52 1025.87 1025.96 1025.71 1024.83 1024.38 1023.85 1024.53 1025.66 1026.49 1027.42 1028.01 1028.70
1020.12 1020.72 1021.20 1021.50 1021.75 1021.75 1021.48 1021.15 1020.53 1020.26 1020.42 1020.65 1021.03 1020.72 1019.96 1020.05 1020.83 1021.67 1021.97 1022.43 1022.71 1022.50 1022.44 1022.35 1022.51 1022.71 1022.49 1022.56 1023.19 1023.65 1024.68 1025.63 1025.78 1026.19 1026.58 1026.59 1026.84 1026.91 1026.12 1025.68 1025.40 1026.08 1026.84 1027.60 1028.38 1028.96 1029.42
1019.58 1020.38 1020.87 1021.29 1021.58 1021.62 1021.51 1021.11 1020.66 1020.17 1020.18 1020.70 1021.06 1021.12 1020.79 1020.77 1021.10 1021.45 1022.16 1022.69 1023.16 1023.38 1023.27 1023.12 1023.29 1023.24 1023.31 1023.53 1023.78 1024.26 1025.23 1025.91 1026.22 1026.52 1026.83 1027.34 1027.65 1027.48 1027.22 1027.11 1027.19 1027.30 1027.62 1028.03 1028.73 1029.76 1029.95
1019.32 1019.94 1020.53 1021.09 1021.18 1021.35 1021.41 1020.91 1020.65 1020.33 1020.23 1020.28 1021.08 1021.37 1021.13 1021.64 1021.69 1021.49 1021.79 1022.61 1023.40 1023.72 1023.80 1023.84 1023.99 1023.98 1024.00 1024.36 1024.68 1024.99 1025.51 1026.31 1026.60 1026.81 1027.32 1028.16 1028.58 1028.19 1028.08 1027.93 1027.90 1028.02 1028.36 1028.56 1029.10 1029.55 1030.78
1019.04 1019.71 1020.37 1020.87 1020.96 1021.12 1021.11 1020.76 1020.56 1020.27 1020.40 1020.59 1020.92 1021.36 1021.88 1021.90 1021.84 1022.00 1022.31 1022.94 1023.40 1024.13 1024.46 1024.52 1024.54 1024.58 1024.93 1025.18 1025.51 1025.75 1025.96 1026.50 1026.76 1027.38 1027.85 1028.28 1028.86 1028.97 1028.85 1028.40 1028.43 1028.74 1028.88 1029.09 1029.43 1030.16 1031.09
1018.90 1019.66 1020.42 1020.68 1020.70 1020.88 1020.90 1020.64 1020.35 1020.14 1020.50 1020.96 1021.14 1020.86 1020.93 1022.32 1022.20 1022.66 1023.11 1023.37 1023.72 1024.17 1025.05 1024.90 1024.73 1025.16 1025.83 1026.26 1026.55 1026.72 1026.77 1026.98 1027.27 1027.61 1028.27 1028.89 1029.35 1029.73 1029.50 1029.38 1029.50 1029.72 1030.31 1030.62 1031.00 1031.87 1032.76
1018.63 1019.37 1020.05 1020.52 1020.49 1020.48 1020.48 1020.34 1020.26 1020.09 1020.00 1020.70 1021.46 1021.38 1021.78 1023.03 1023.14 1023.28 1023.45 1023.82 1024.73 1025.14 1025.36 1025.67 1025.72 1025.88 1026.77 1026.80 1026.92 1026.96 1027.19 1027.27 1027.49 1027.80 1028.09 1028.84 1029.72 1030.42 1030.48 1030.53 1030.79 1031.12 1031.33 1031.85 1032.68 1033.67 1034.03
1018.26 1019.07 1019.72 1020.10 1020.12 1020.45 1020.32 1020.11 1020.01 1019.98 1019.88 1020.72 1021.52 1021.44 1021.83 1023.95 1024.44 1024.65 1024.55 1024.59 1025.35 1026.17 1026.53 1026.56 1026.92 1026.91 1026.73 1027.12 1027.74 1027.80 1027.91 1027.88 1027.63 1027.84 1028.28 1028.82 1030.00 1030.97 1031.42 1031.60 1031.64 1031.87 1032.34 1033.10 1033.82 1034.84 1035.22
1018.00 1018.98 1019.46 1019.87 1019.82 1020.14 1020.34 1020.08 1020.14 1020.09 1020.33 1020.96 1021.57 1021.47 1021.60 1023.72 1025.72 1025.59 1025.17 1025.45 1025.97 1026.78 1027.46 1027.60 1027.64 1027.51 1027.43 1027.74 1028.41 1028.66 1028.36 1028.00 1028.40 1028.46 1028.45 1029.27 1030.13 1031.51 1032.34 1032.76 1032.80 1033.06 1033.25 1033.52 1034.40 1035.47 1035.48
1017.83 1018.49 1019.18 1019.48 1019.81 1020.05 1020.19 1020.17 1020.19 1020.24 1020.25 1021.00 1021.62 1021.54 1021.77 1024.51 1026.11 1026.35 1026.01 1025.93 1026.25 1026.96 1028.12 1028.38 1028.28 1028.30 1028.27 1028.67 1029.19 1029.38 1029.16 1028.69 1028.91 1029.14 1029.52 1030.26 1031.20 1032.01 1032.78 1033.11 1033.59 1033.81 1033.76 1033.82 1035.41 1036.30 1035.66
1017.64 1018.50 1019.08 1019.40 1020.18 1020.22 1019.95 1020.16 1020.22 1020.23 1020.54 1020.85 1022.04 1021.62 1021.98 1025.13 1026.91 1027.02 1027.03 1026.81 1026.62 1026.88 1027.84 1028.77 1029.22 1029.13 1029.53 1030.09 1030.47 1030.54 1030.23 1029.98 1030.06 1030.16 1030.53 1031.16 1032.05 1032.71 1033.43 1033.83 1034.36 1034.25 1034.30 1035.24 1036.24 1035.92 1035.87
1017.61 1018.26 1018.90 1019.85 1020.34 1020.47 1019.98 1020.23 1020.63 1020.75 1020.52 1020.84 1022.14 1021.94 1022.28 1024.55 1027.75 1027.58 1028.03 1027.76 1027.21 1027.10 1027.71 1028.60 1029.47 1029.74 1030.40 1030.89 1031.39 1031.59 1031.53 1031.22 1031.53 1032.02 1031.83 1032.84 1033.36 1033.73 1034.40 1034.78 1034.89 1034.87 1035.58 1036.16 1036.16 1036.15 1035.88
Wind_Speed
7 8 10 11 13 14 15 15 16 16 17 17 17 17 17 17 16 15 14 13 12 11 11 9 7 6 1 3 1 2 5 7 5 5 3 4 4 2 2 3 1 2 3 4 5 2 3
7 8 9 11 12 13 14 15 15 16 17 17 17 17 17 16 16 15 14 13 12 11 10 8 6 5 1 3 4 1 4 3 6 4 4 6 3 2 3 3 1 2 4 8 6 6 4
7 8 9 11 12 13 14 14 15 16 16 17 17 17 17 17 16 15 15 14 12 10 8 6 5 3 4 1 4 3 3 0 3 3 3 3 3 3 3 4 3 3 5 8 6 5 3
7 9 10 11 13 14 14 15 16 16 16 17 17 17 18 18 17 17 16 14 9 7 7 6 5 1 3 2 3 4 6 2 2 3 3 2 4 2 1 3 3 2 0 4 6 8 2
6 7 9 11 13 14 15 15 16 16 16 17 17 17 18 18 18 17 16 14 7 6 6 6 2 2 2 1 2 3 2 3 3 1 1 2 2 1 3 2 5 3 3 4 6 4 4
4 5 6 9 11 13 15 15 15 16 16 17 17 16 17 18 18 17 16 8 8 7 3 3 3 4 0 1 1 3 2 1 2 3 2 2 3 3 4 4 3 2 3 4 4 4 4
2 3 5 7 8 10 13 15 16 16 16 16 16 16 16 17 17 15 8 3 5 4 8 2 1 2 2 1 1 1 2 5 2 1 2 2 5 3 5 6 5 3 3 4 7 7 6
1 2 4 6 8 10 11 12 14 16 17 17 17 16 16 16 16 16 2 5 2 2 3 2 1 3 0 1 1 4 5 2 1 2 2 5 2 3 2 2 2 3 4 8 8 6 2
1 2 4 5 8 10 11 12 13 15 16 17 18 17 17 17 14 4 5 3 2 3 2 2 1 2 1 2 2 3 4 4 1 2 3 4 2 2 3 4 4 3 4 5 7 6 6
3 3 5 7 9 10 11 12 14 15 15 16 16 16 17 19 4 1 2 2 3 1 5 0 0 1 1 2 2 2 3 1 2 2 4 4 2 2 2 3 1 3 2 3 5 7 3
5 3 4 6 9 10 12 12 14 15 15 16 16 16 15 12 2 3 3 5 3 3 5 1 0 1 1 2 3 1 1 2 2 3 5 7 2 4 1 2 3 5 3 4 4 5 3
7 3 3 6 9 11 11 12 13 15 16 15 15 14 15 4 3 1 3 4 3 8 5 1 1 1 0 0 1 3 2 5 3 2 2 7 3 4 4 4 3 5 5 7 2 2 2
8 5 2 4 7 10 11 13 13 14 15 14 14 12 7 1 1 3 2 3 7 6 2 1 1 2 3 1 2 3 5 8 4 6 5 7 4 2 3 3 6 7 5 5 6 2 7
10 7 4 3 5 8 10 11 13 14 15 15 13 9 4 2 1 2 3 5 3 3 2 1 1 3 2 1 1 2 5 2 7 4 1 2 6 3 3 3 1 2 4 5 7 4 6
11 8 4 4 6 7 10 11 11 14 15 14 12 1 1 3 1 3 5 4 5 1 2 4 4 1 2 1 1 5 4 3 3 5 2 3 5 4 5 1 3 2 1 5 4 4 1
12 9 5 4 5 6 9 11 12 12 13 12 2 2 1 2 2 4 6 5 5 2 2 0 1 1 0 1 1 1 4 3 3 3 2 2 5 3 2 2 4 4 1 2 1 4 8
14 10 7 5 5 6 8 9 11 13 11 7 2 3 3 2 3 5 3 3 3 2 1 2 1 2 1 2 1 2 3 2 2 2 3 1 4 6 4 0 1 5 3 4 1 3 4
15 12 8 4 5 7 7 9 10 12 9 3 2 2 3 3 3 1 4 2 1 2 5 0 2 2 2 1 1 2 4 3 2 1 2 0 2 4 7 8 7 6 3 3 4 4 1
16 12 8 4 4 6 8 9 9 8 4 2 2 3 3 4 2 1 3 3 4 2 3 4 2 3 2 1 2 3 5 4 5 3 2 1 1 3 1 4 5 5 3 1 2 3 5
18 14 9 4 3 7 9 9 10 6 1 3 3 1 4 4 1 6 5 4 3 3 2 2 2 1 1 1 2 2 4 4 4 2 3 2 3 6 7 1 2 4 4 4 5 2 4
20 15 9 5 0 5 8 10 11 6 3 4 2 4 3 2 3 3 4 6 5 4 1 2 1 0 3 4 0 3 3 3 3 3 3 3 4 3 5 5 3 6 9 11 11 7 6
20 16 12 6 1 5 7 10 10 3 4 3 5 5 3 1 1 4 1 3 6 3 4 2 3 5 1 2 1 3 4 3 4 3 4 2 3 3 3 6 6 7 7 7 8 3 2
20 17 12 7 3 3 5 7 9 1 1 2 1 1 5 1 2 4 2 3 4 9 2 3 5 4 2 3 1 2 1 2 1 5 5 3 3 2 4 2 6 8 2 2 2 4 1
22 18 14 9 5 2 5 4 8 2 5 3 1 2 4 1 2 2 3 4 5 2 5 2 5 3 0 3 3 2 2 4 5 5 5 3 2 2 4 3 2 2 3 5 3 3 5
23 19 15 11 7 4 5 7 5 7 4 4 0 3 4 4 4 4 6 7 8 6 4 5 3 2 1 2 2 2 2 2 4 6 6 6 4 2 2 3 1 1 4 4 4 5 2
24 20 16 13 9 7 6 6 8 5 8 5 2 1 5 8 3 3 5 5 5 4 3 2 1 2 3 2 1 2 4 4 2 2 3 4 4 4 1 1 5 1 3 6 4 4 3
25 21 17 13 11 8 7 8 7 9 7 4 2 2 5 6 4 4 2 4 3 5 3 1 1 3 3 1 2 3 3 3 3 4 4 2 1 8 6 5 2 2 8 4 4 7 8
24 21 17 15 10 9 9 8 8 9 5 4 1 3 5 5 8 7 6 4 3 4 5 2 4 4 3 2 1 3 1 2 2 2 1 3 2 2 2 2 6 3 0 0 4 4 6
24 22 18 15 11 10 12 11 7 4 8 5 4 3 5 8 5 7 8 5 5 2 5 3 4 2 3 3 2 2 2 3 1 2 5 0 2 1 1 2 3 3 10 4 2 3 5
Wind_Direction
44 29 20 15 14 11 9 7 4 359 357 356 354 350 347 343 339 336 331 331 326 327 330 332 328 328 316 74 104 177 322 315 319 333 333 1 16 340 318 347 56 166 308 340 327 197 230
31 29 19 17 12 10 7 4 1 359 356 354 352 347 344 340 339 332 330 328 326 327 327 332 323 326 39 112 261 356 310 354 2 4 23 35 16 333 301 275 154 231 288 280 260 232 226
27 28 16 13 12 6 3 2 1 358 355 353 349 345 342 339 335 331 328 323 319 317 319 324 321 306 56 95 314 308 272 187 335 25 19 37 350 44 326 321 306 299 316 311 250 206 194
31 21 17 13 7 3 1 360 358 356 353 352 349 345 342 339 336 331 327 321 311 304 310 304 316 307 94 292 328 329 339 218 51 43 57 338 347 284 257 315 329 275 24 332 296 140 200
52 30 14 10 7 360 358 357 354 353 352 351 350 347 341 338 334 329 324 319 307 302 293 287 338 107 53 281 48 316 359 14 320 232 1 298 15 59 15 66 3 328 249 239 305 191 127
64 46 30 15 7 358 356 354 352 351 351 350 348 346 340 337 333 327 321 293 303 325 261 261 273 45 329 102 15 315 264 321 320 339 0 21 48 53 16 81 235 240 274 302 273 255 188
53 36 19 14 10 4 356 352 349 348 347 347 346 342 340 337 332 327 347 358 16 360 41 101 277 129 62 115 34 53 3 353 259 286 100 265 65 224 232 227 258 306 271 268 277 278 180
134 8 14 1 1 0 359 353 348 346 347 346 344 340 338 335 331 324 98 68 82 248 333 331 62 76 87 46 110 5 12 13 302 325 184 25 228 223 241 117 62 9 324 289 284 292 243
249 324 348 353 352 355 354 352 349 348 348 346 343 339 335 332 326 18 79 75 317 13 132 21 346 68 271 7 75 352 27 345 336 352 22 183 271 53 18 344 350 290 235 266 257 319 327
221 290 334 341 346 349 352 350 348 347 347 345 342 340 333 327 47 314 73 318 327 66 81 213 21 333 354 10 42 352 18 107 329 17 347 254 228 88 3 288 275 269 320 321 333 23 267
212 259 320 338 341 344 347 349 348 346 345 344 342 339 334 347 278 47 330 335 311 56 31 312 51 311 68 71 157 332 302 16 36 318 70 259 102 59 326 228 355 245 311 287 276 268 19
206 226 312 336 337 339 342 347 347 345 343 343 340 337 336 28 35 347 332 337 31 45 266 73 76 256 185 224 157 171 19 19 67 310 234 247 296 185 203 295 224 293 351 324 305 138 303
206 209 249 324 330 334 338 341 344 343 342 338 337 335 339 342 286 309 11 47 34 118 288 20 64 36 350 101 99 29 59 16 43 39 360 329 334 25 55 348 19 30 48 332 330 8 225
204 210 215 282 316 328 333 338 340 341 339 333 330 329 289 143 264 22 62 57 116 263 57 268 281 303 246 8 131 84 122 88 24 19 63 71 334 7 353 100 242 296 149 170 256 222 269
201 206 224 282 310 328 330 333 342 339 338 334 324 305 316 289 256 81 80 65 215 44 334 11 320 272 228 217 169 102 66 103 32 28 117 35 264 360 57 341 108 315 92 162 272 204 248
195 202 219 255 297 325 328 333 337 341 337 343 350 333 245 275 82 65 77 189 152 85 350 11 213 200 80 199 197 138 149 313 121 55 52 31 302 298 342 329 59 116 194 23 4 271 240
191 194 205 256 295 316 323 330 336 339 336 351 31 27 253 102 73 49 154 188 125 86 70 123 209 282 150 157 136 270 107 356 67 343 350 106 158 293 16 20 114 341 31 54 106 189 247
189 187 200 218 284 303 316 325 337 342 335 64 81 336 277 85 56 100 146 80 226 128 5 34 81 68 102 121 261 182 145 85 57 77 89 339 123 266 248 328 87 81 84 85 130 274 229
182 185 193 208 268 300 313 321 334 350 359 97 150 234 322 83 183 119 143 67 56 46 56 20 96 7 348 61 275 62 97 119 70 60 78 45 233 331 280 332 18 61 80 68 237 176 213
172 179 175 198 280 314 318 326 331 342 134 101 90 348 327 51 185 135 152 169 127 20 72 56 130 338 34 142 63 153 132 158 125 112 125 64 227 206 203 180 209 259 307 281 212 164 248
168 165 163 183 269 323 323 337 339 330 165 110 94 232 194 210 291 139 121 142 140 167 100 43 57 167 162 187 170 198 112 137 117 168 163 131 254 259 275 270 261 282 285 276 264 229 189
160 156 159 147 57 334 334 350 349 0 149 79 145 143 24 115 342 106 67 164 151 125 154 206 203 158 130 149 210 165 142 141 179 182 182 176 268 328 287 277 280 274 265 259 255 171 300
152 154 154 137 118 355 341 352 358 32 134 106 269 31 107 302 115 114 184 150 143 127 1 29 141 113 149 124 37 147 45 109 133 154 196 190 189 347 258 284 319 288 276 351 37 58 52
153 152 150 155 146 94 25 20 13 19 162 131 240 108 103 165 91 154 125 101 120 48 137 75 52 86 11 350 325 300 263 260 257 253 178 175 94 196 274 339 271 255 48 120 127 46 26
150 151 149 156 147 126 69 42 49 50 134 99 61 114 114 93 98 67 85 110 77 52 61 72 43 129 21 19 32 308 349 286 252 219 208 175 138 266 214 215 267 334 10 31 103 280 281
152 149 155 158 141 111 75 66 56 88 108 86 90 203 101 119 4 286 128 145 131 108 42 59 50 7 49 90 221 251 229 210 169 274 209 161 109 132 17 260 266 225 311 349 100 284 314
152 152 154 145 136 127 99 77 69 72 108 112 66 354 86 101 6 356 103 150 105 100 107 103 206 8 48 52 228 227 257 178 215 173 173 156 242 215 242 262 243 295 299 309 79 259 344
148 145 145 131 139 120 103 94 91 90 127 89 166 335 108 93 38 41 26 48 53 71 123 233 41 353 31 42 355 286 84 257 66 19 58 170 181 220 5 34 282 296 353 55 241 319 324
147 142 137 141 131 115 92 77 80 106 114 96 68 19 62 86 129 103 71 47 73 106 128 42 154 93 198 76 4 11 346 20 118 270 9 291 138 131 11 225 225 337 96 78 8 288 316